sat.trackr.live / text

‹ back to catalog

UNKNOWN

NORAD 84575

UNKNOWN UNKNOWN UNKNOWN

§ Identity

Operator
Country
Launch date
Launch site
Launch vehicle
Mass (kg)
RCS (m²)

External: N2YO · Heavens-Above

§ Orbital elements

Epoch: 2026-05-20T13:00:14.458464Z

Period
654.97 min
Inclination
18.1332°
Eccentricity
0.7129854
Mean motion
2.19856161 rev/d
Perigee alt
792.3 km
Apogee alt
36,417.2 km
Semi-major
24,982.9 km
B*
2.0921e-3
RAAN
104.4722°
Arg perigee
120.7457°
Mean anomaly
327.3564°
Rev number
6,895

§ Raw data

UNKNOWN1 84575U          26140.54183401 -.00000050  00000+0  20921-2 0  99992 84575  18.1332 104.4722 7129854 120.7457 327.3564  2.19856161 68958

JSON: /api/v1/satellites/84575 · /tle

For live sub-satellite position, see the globe view (requires WebGL).

§ Visibility from observer

Set your observer location to see the next 7 days of passes ≥ 10°. The values pass through the URL so the page stays shareable.

No JS? Fill the form by hand. The geolocation button needs JavaScript.